Time,TemperatureF,DewpointF,PressureIn,WindDirection,WindDirectionDegrees,WindSpeedMPH,WindSpeedGustMPH,Humidity,HourlyPrecipIn,Conditions,Clouds,dailyrainin,SoftwareType,DateUTC
2013-05-18 00:02:00,57.2,48.2,30.57,NNW,341,1.2,-999.9,72,-99.99,,,-99.99,,2013-05-18 04:02:00,
2013-05-18 00:06:00,57.2,48.2,30.57,NNW,341,1.2,-999.9,72,-99.99,,,-99.99,,2013-05-18 04:06:00,
2013-05-18 00:08:00,57.2,48.2,30.57,NNW,341,1.2,-999.9,72,-99.99,,,-99.99,,2013-05-18 04:08:00,
2013-05-18 00:14:00,55.4,48.2,30.57,NNW,344,1.2,-999.9,77,-99.99,,,-99.99,,2013-05-18 04:14:00,
2013-05-18 00:20:00,55.4,48.2,30.57,NNW,344,1.2,-999.9,77,-99.99,,,-99.99,,2013-05-18 04:20:00,
2013-05-18 00:22:00,55.4,48.2,30.57,North,5,0.0,-999.9,77,-99.99,,,-99.99,,2013-05-18 04:22:00,
2013-05-18 00:28:00,55.4,48.2,30.57,North,5,0.0,-999.9,77,-99.99,,,-99.99,,2013-05-18 04:28:00,
2013-05-18 00:34:00,55.4,48.2,30.56,North,352,3.5,-999.9,77,-99.99,,,-99.99,,2013-05-18 04:34:00,
2013-05-18 00:38:00,55.4,48.2,30.56,North,352,3.5,-999.9,77,-99.99,,,-99.99,,2013-05-18 04:38:00,
2013-05-18 00:44:00,55.4,48.2,30.57,ESE,107,0.0,-999.9,77,-99.99,,,-99.99,,2013-05-18 04:44:00,
2013-05-18 00:50:00,55.4,48.2,30.57,ESE,107,0.0,-999.9,77,-99.99,,,-99.99,,2013-05-18 04:50:00,
2013-05-18 00:56:00,53.6,48.2,30.56,North,352,0.0,-999.9,82,-99.99,,,-99.99,,2013-05-18 04:56:00,
2013-05-18 01:02:00,53.6,48.2,30.57,North,0,0.0,-999.9,82,-99.99,,,-99.99,,2013-05-18 05:02:00,
2013-05-18 01:08:00,53.6,48.2,30.57,North,0,0.0,-999.9,82,-99.99,,,-99.99,,2013-05-18 05:08:00,
2013-05-18 01:42:00,51.8,48.2,30.57,North,0,0.0,-999.9,88,-99.99,,,-99.99,,2013-05-18 05:42:00,
2013-05-18 01:48:00,51.8,48.2,30.57,North,0,0.0,-999.9,88,-99.99,,,-99.99,,2013-05-18 05:48:00,
2013-05-18 02:02:00,51.8,46.4,30.57,NNW,332,1.2,-999.9,82,-99.99,,,-99.99,,2013-05-18 06:02:00,
2013-05-18 02:08:00,51.8,46.4,30.57,NNW,332,1.2,-999.9,82,-99.99,,,-99.99,,2013-05-18 06:08:00,
2013-05-18 02:14:00,53.6,48.2,30.57,NNW,340,1.2,-999.9,82,-99.99,,,-99.99,,2013-05-18 06:14:00,
2013-05-18 02:20:00,53.6,48.2,30.57,NNW,340,1.2,-999.9,82,-99.99,,,-99.99,,2013-05-18 06:20:00,
2013-05-18 02:26:00,51.8,48.2,30.57,North,0,0.0,-999.9,88,-99.99,,,-99.99,,2013-05-18 06:26:00,
2013-05-18 02:32:00,50.0,46.4,30.58,North,0,0.0,-999.9,87,-99.99,,,-99.99,,2013-05-18 06:32:00,
2013-05-18 02:38:00,50.0,46.4,30.58,North,0,0.0,-999.9,87,-99.99,,,-99.99,,2013-05-18 06:38:00,
2013-05-18 02:44:00,50.0,46.4,30.58,North,0,0.0,-999.9,87,-99.99,,,-99.99,,2013-05-18 06:44:00,
2013-05-18 02:50:00,50.0,46.4,30.58,North,0,0.0,-999.9,87,-99.99,,,-99.99,,2013-05-18 06:50:00,
2013-05-18 02:56:00,50.0,48.2,30.58,WNW,302,0.0,-999.9,94,-99.99,,,-99.99,,2013-05-18 06:56:00,
2013-05-18 03:02:00,50.0,48.2,30.58,NNE,29,0.0,-999.9,94,-99.99,,,-99.99,,2013-05-18 07:02:00,
2013-05-18 03:08:00,50.0,48.2,30.58,NNE,29,0.0,-999.9,94,-99.99,,,-99.99,,2013-05-18 07:08:00,
2013-05-18 03:14:00,50.0,48.2,30.58,NE,48,0.0,-999.9,94,-99.99,,,-99.99,,2013-05-18 07:14:00,
2013-05-18 03:20:00,50.0,48.2,30.58,NE,48,0.0,-999.9,94,-99.99,,,-99.99,,2013-05-18 07:20:00,
2013-05-18 03:26:00,50.0,46.4,30.58,NNE,26,2.3,-999.9,87,-99.99,,,-99.99,,2013-05-18 07:26:00,
2013-05-18 03:32:00,50.0,46.4,30.58,North,353,2.3,-999.9,87,-99.99,,,-99.99,,2013-05-18 07:32:00,
2013-05-18 03:38:00,50.0,46.4,30.58,North,353,2.3,-999.9,87,-99.99,,,-99.99,,2013-05-18 07:38:00,
2013-05-18 03:44:00,50.0,46.4,30.58,NE,35,3.5,-999.9,87,-99.99,,,-99.99,,2013-05-18 07:44:00,
2013-05-18 03:50:00,50.0,46.4,30.58,NE,35,3.5,-999.9,87,-99.99,,,-99.99,,2013-05-18 07:50:00,
2013-05-18 03:56:00,50.0,46.4,30.58,North,0,0.0,-999.9,87,-99.99,,,-99.99,,2013-05-18 07:56:00,
2013-05-18 04:02:00,50.0,46.4,30.59,NE,39,1.2,-999.9,87,-99.99,,,-99.99,,2013-05-18 08:02:00,
2013-05-18 04:08:00,50.0,46.4,30.59,NE,39,1.2,-999.9,87,-99.99,,,-99.99,,2013-05-18 08:08:00,
2013-05-18 04:14:00,50.0,46.4,30.59,North,0,0.0,-999.9,87,-99.99,,,-99.99,,2013-05-18 08:14:00,
2013-05-18 04:20:00,50.0,46.4,30.59,North,0,0.0,-999.9,87,-99.99,,,-99.99,,2013-05-18 08:20:00,
2013-05-18 04:26:00,50.0,46.4,30.60,North,0,0.0,-999.9,87,-99.99,,,-99.99,,2013-05-18 08:26:00,
2013-05-18 04:32:00,50.0,46.4,30.60,North,0,0.0,-999.9,87,-99.99,,,-99.99,,2013-05-18 08:32:00,
2013-05-18 04:38:00,50.0,46.4,30.60,North,0,0.0,-999.9,87,-99.99,,,-99.99,,2013-05-18 08:38:00,
2013-05-18 04:44:00,50.0,48.2,30.60,North,0,0.0,-999.9,94,-99.99,,,-99.99,,2013-05-18 08:44:00,
2013-05-18 04:50:00,50.0,48.2,30.60,North,0,0.0,-999.9,94,-99.99,,,-99.99,,2013-05-18 08:50:00,
2013-05-18 04:56:00,48.2,46.4,30.60,North,0,0.0,-999.9,93,-99.99,,,-99.99,,2013-05-18 08:56:00,
2013-05-18 05:02:00,48.2,46.4,30.60,North,0,0.0,-999.9,93,-99.99,,,-99.99,,2013-05-18 09:02:00,
2013-05-18 05:08:00,48.2,46.4,30.60,North,0,0.0,-999.9,93,-99.99,,,-99.99,,2013-05-18 09:08:00,
2013-05-18 05:14:00,50.0,48.2,30.60,NNW,346,4.6,-999.9,94,-99.99,,,-99.99,,2013-05-18 09:14:00,
2013-05-18 05:20:00,50.0,48.2,30.60,NNW,346,4.6,-999.9,94,-99.99,,,-99.99,,2013-05-18 09:20:00,
2013-05-18 05:26:00,50.0,48.2,30.60,NNW,330,2.3,-999.9,94,-99.99,,,-99.99,,2013-05-18 09:26:00,
2013-05-18 05:32:00,50.0,48.2,30.61,NNW,335,3.5,-999.9,94,-99.99,,,-99.99,,2013-05-18 09:32:00,
2013-05-18 05:38:00,50.0,48.2,30.61,NNW,335,3.5,-999.9,94,-99.99,,,-99.99,,2013-05-18 09:38:00,
2013-05-18 05:44:00,50.0,48.2,30.61,NW,326,0.0,-999.9,94,-99.99,,,-99.99,,2013-05-18 09:44:00,
2013-05-18 05:50:00,50.0,48.2,30.61,NW,326,0.0,-999.9,94,-99.99,,,-99.99,,2013-05-18 09:50:00,
2013-05-18 05:56:00,50.0,46.4,30.61,North,351,3.5,-999.9,87,-99.99,,,-99.99,,2013-05-18 09:56:00,
2013-05-18 06:02:00,50.0,46.4,30.62,NNW,339,3.5,-999.9,87,-99.99,,,-99.99,,2013-05-18 10:02:00,
2013-05-18 06:08:00,50.0,46.4,30.62,NNW,339,3.5,-999.9,87,-99.99,,,-99.99,,2013-05-18 10:08:00,
2013-05-18 06:14:00,50.0,46.4,30.62,NNW,335,2.3,-999.9,87,-99.99,,,-99.99,,2013-05-18 10:14:00,
2013-05-18 06:20:00,50.0,46.4,30.62,NNW,335,2.3,-999.9,87,-99.99,,,-99.99,,2013-05-18 10:20:00,
2013-05-18 06:26:00,50.0,46.4,30.62,NNW,344,4.6,-999.9,87,-99.99,,,-99.99,,2013-05-18 10:26:00,
2013-05-18 06:32:00,50.0,46.4,30.63,NNW,341,3.5,-999.9,87,-99.99,,,-99.99,,2013-05-18 10:32:00,
2013-05-18 06:38:00,50.0,46.4,30.63,NNW,341,3.5,-999.9,87,-99.99,,,-99.99,,2013-05-18 10:38:00,
2013-05-18 06:44:00,51.8,48.2,30.63,North,357,3.5,-999.9,88,-99.99,,,-99.99,,2013-05-18 10:44:00,
2013-05-18 06:50:00,51.8,48.2,30.63,North,357,3.5,-999.9,88,-99.99,,,-99.99,,2013-05-18 10:50:00,
2013-05-18 06:56:00,53.6,48.2,30.63,NNE,16,2.3,-999.9,82,-99.99,,,-99.99,,2013-05-18 10:56:00,
2013-05-18 07:02:00,53.6,48.2,30.63,NNE,24,1.2,-999.9,82,-99.99,,,-99.99,,2013-05-18 11:02:00,
2013-05-18 07:08:00,53.6,48.2,30.63,NNE,24,1.2,-999.9,82,-99.99,,,-99.99,,2013-05-18 11:08:00,
2013-05-18 07:14:00,53.6,48.2,30.63,North,3,0.0,-999.9,82,-99.99,,,-99.99,,2013-05-18 11:14:00,
2013-05-18 07:20:00,53.6,48.2,30.63,North,3,0.0,-999.9,82,-99.99,,,-99.99,,2013-05-18 11:20:00,
2013-05-18 07:26:00,53.6,48.2,30.63,NE,49,1.2,-999.9,82,-99.99,,,-99.99,,2013-05-18 11:26:00,
2013-05-18 07:32:00,55.4,48.2,30.64,North,1,1.2,-999.9,77,-99.99,,,-99.99,,2013-05-18 11:32:00,
2013-05-18 07:38:00,55.4,48.2,30.64,North,1,1.2,-999.9,77,-99.99,,,-99.99,,2013-05-18 11:38:00,
2013-05-18 07:44:00,55.4,48.2,30.64,North,0,0.0,-999.9,77,-99.99,,,-99.99,,2013-05-18 11:44:00,
2013-05-18 07:50:00,55.4,48.2,30.64,North,0,0.0,-999.9,77,-99.99,,,-99.99,,2013-05-18 11:50:00,
2013-05-18 07:56:00,55.4,48.2,30.64,NNE,19,0.0,-999.9,77,-99.99,,,-99.99,,2013-05-18 11:56:00,
2013-05-18 08:02:00,57.2,48.2,30.64,North,0,0.0,-999.9,72,-99.99,,,-99.99,,2013-05-18 12:02:00,
2013-05-18 08:08:00,57.2,48.2,30.64,North,0,0.0,-999.9,72,-99.99,,,-99.99,,2013-05-18 12:08:00,
2013-05-18 08:14:00,57.2,48.2,30.64,North,0,0.0,-999.9,72,-99.99,,,-99.99,,2013-05-18 12:14:00,
2013-05-18 08:20:00,57.2,48.2,30.64,North,0,0.0,-999.9,72,-99.99,,,-99.99,,2013-05-18 12:20:00,
2013-05-18 08:26:00,57.2,46.4,30.64,NE,55,0.0,-999.9,67,-99.99,,,-99.99,,2013-05-18 12:26:00,
2013-05-18 08:32:00,59.0,46.4,30.64,North,0,0.0,-999.9,63,-99.99,,,-99.99,,2013-05-18 12:32:00,
2013-05-18 08:38:00,59.0,46.4,30.64,North,0,0.0,-999.9,63,-99.99,,,-99.99,,2013-05-18 12:38:00,
2013-05-18 08:44:00,60.8,48.2,30.64,North,0,0.0,-999.9,63,-99.99,,,-99.99,,2013-05-18 12:44:00,
2013-05-18 08:50:00,60.8,48.2,30.64,North,0,0.0,-999.9,63,-99.99,,,-99.99,,2013-05-18 12:50:00,
2013-05-18 08:56:00,60.8,48.2,30.64,SSE,149,3.5,-999.9,63,-99.99,,,-99.99,,2013-05-18 12:56:00,
2013-05-18 09:02:00,62.6,46.4,30.64,ESE,103,4.6,-999.9,55,-99.99,,,-99.99,,2013-05-18 13:02:00,
2013-05-18 09:08:00,62.6,46.4,30.64,ESE,103,4.6,-999.9,55,-99.99,,,-99.99,,2013-05-18 13:08:00,
2013-05-18 09:14:00,62.6,48.2,30.64,ENE,75,0.0,-999.9,59,-99.99,,,-99.99,,2013-05-18 13:14:00,
2013-05-18 09:20:00,62.6,48.2,30.64,ENE,75,0.0,-999.9,59,-99.99,,,-99.99,,2013-05-18 13:20:00,
2013-05-18 09:26:00,62.6,48.2,30.65,North,0,0.0,-999.9,59,-99.99,,,-99.99,,2013-05-18 13:26:00,
2013-05-18 09:32:00,62.6,46.4,30.65,North,0,0.0,-999.9,55,-99.99,,,-99.99,,2013-05-18 13:32:00,
2013-05-18 09:38:00,62.6,46.4,30.65,North,0,0.0,-999.9,55,-99.99,,,-99.99,,2013-05-18 13:38:00,
2013-05-18 09:44:00,62.6,46.4,30.65,South,172,2.3,-999.9,55,-99.99,,,-99.99,,2013-05-18 13:44:00,
2013-05-18 09:50:00,62.6,46.4,30.65,South,172,2.3,-999.9,55,-99.99,,,-99.99,,2013-05-18 13:50:00,
2013-05-18 09:56:00,62.6,46.4,30.65,SE,141,3.5,-999.9,55,-99.99,,,-99.99,,2013-05-18 13:56:00,
2013-05-18 10:02:00,62.6,46.4,30.65,SE,141,1.2,-999.9,55,-99.99,,,-99.99,,2013-05-18 14:02:00,
2013-05-18 10:08:00,62.6,46.4,30.65,SE,141,1.2,-999.9,55,-99.99,,,-99.99,,2013-05-18 14:08:00,
2013-05-18 10:14:00,62.6,46.4,30.64,SE,129,1.2,-999.9,55,-99.99,,,-99.99,,2013-05-18 14:14:00,
2013-05-18 10:20:00,62.6,46.4,30.64,SE,129,1.2,-999.9,55,-99.99,,,-99.99,,2013-05-18 14:20:00,
2013-05-18 10:26:00,64.4,46.4,30.64,North,0,0.0,-999.9,52,-99.99,,,-99.99,,2013-05-18 14:26:00,
2013-05-18 10:32:00,64.4,46.4,30.64,South,170,0.0,-999.9,52,-99.99,,,-99.99,,2013-05-18 14:32:00,
2013-05-18 10:38:00,64.4,46.4,30.64,South,170,0.0,-999.9,52,-99.99,,,-99.99,,2013-05-18 14:38:00,
2013-05-18 10:44:00,64.4,44.6,30.64,SE,130,4.6,-999.9,49,-99.99,,,-99.99,,2013-05-18 14:44:00,
2013-05-18 10:50:00,64.4,44.6,30.64,SE,130,4.6,-999.9,49,-99.99,,,-99.99,,2013-05-18 14:50:00,
2013-05-18 10:56:00,64.4,46.4,30.64,SSE,164,2.3,-999.9,52,-99.99,,,-99.99,,2013-05-18 14:56:00,
2013-05-18 11:02:00,66.2,46.4,30.64,South,171,3.5,-999.9,49,-99.99,,,-99.99,,2013-05-18 15:02:00,
2013-05-18 11:08:00,66.2,46.4,30.64,South,171,3.5,-999.9,49,-99.99,,,-99.99,,2013-05-18 15:08:00,
2013-05-18 11:14:00,68.0,46.4,30.63,ESE,105,1.2,-999.9,46,-99.99,,,-99.99,,2013-05-18 15:14:00,
2013-05-18 11:20:00,68.0,46.4,30.63,ESE,105,1.2,-999.9,46,-99.99,,,-99.99,,2013-05-18 15:20:00,
2013-05-18 11:26:00,68.0,44.6,30.63,SSE,151,8.1,-999.9,43,-99.99,,,-99.99,,2013-05-18 15:26:00,
2013-05-18 11:32:00,66.2,44.6,30.63,SSE,158,6.9,-999.9,46,-99.99,,,-99.99,,2013-05-18 15:32:00,
2013-05-18 11:38:00,66.2,44.6,30.63,SSE,158,6.9,-999.9,46,-99.99,,,-99.99,,2013-05-18 15:38:00,
2013-05-18 11:44:00,66.2,44.6,30.63,SSW,192,1.2,-999.9,46,-99.99,,,-99.99,,2013-05-18 15:44:00,
2013-05-18 11:50:00,66.2,44.6,30.63,SSW,192,1.2,-999.9,46,-99.99,,,-99.99,,2013-05-18 15:50:00,
2013-05-18 11:56:00,66.2,44.6,30.63,SSE,151,3.5,-999.9,46,-99.99,,,-99.99,,2013-05-18 15:56:00,
2013-05-18 12:02:00,66.2,44.6,30.63,SSE,168,2.3,-999.9,46,-99.99,,,-99.99,,2013-05-18 16:02:00,
2013-05-18 12:08:00,66.2,44.6,30.63,SSE,168,2.3,-999.9,46,-99.99,,,-99.99,,2013-05-18 16:08:00,
2013-05-18 12:14:00,66.2,44.6,30.63,SE,135,1.2,-999.9,46,-99.99,,,-99.99,,2013-05-18 16:14:00,
2013-05-18 12:20:00,66.2,44.6,30.63,SE,135,1.2,-999.9,46,-99.99,,,-99.99,,2013-05-18 16:20:00,
2013-05-18 12:26:00,66.2,46.4,30.63,North,0,0.0,-999.9,49,-99.99,,,-99.99,,2013-05-18 16:26:00,
2013-05-18 12:32:00,66.2,46.4,30.63,SSE,154,8.1,-999.9,49,-99.99,,,-99.99,,2013-05-18 16:32:00,
2013-05-18 12:38:00,66.2,46.4,30.63,SSE,154,8.1,-999.9,49,-99.99,,,-99.99,,2013-05-18 16:38:00,
2013-05-18 12:44:00,66.2,46.4,30.63,SSW,207,0.0,-999.9,49,-99.99,,,-99.99,,2013-05-18 16:44:00,
2013-05-18 12:50:00,66.2,46.4,30.63,SSW,207,0.0,-999.9,49,-99.99,,,-99.99,,2013-05-18 16:50:00,
2013-05-18 12:56:00,66.2,48.2,30.63,SE,141,4.6,-999.9,52,-99.99,,,-99.99,,2013-05-18 16:56:00,
2013-05-18 13:02:00,66.2,46.4,30.63,SSW,212,0.0,-999.9,49,-99.99,,,-99.99,,2013-05-18 17:02:00,
2013-05-18 13:08:00,66.2,46.4,30.63,SSW,212,0.0,-999.9,49,-99.99,,,-99.99,,2013-05-18 17:08:00,
2013-05-18 13:14:00,66.2,44.6,30.63,SE,141,3.5,-999.9,46,-99.99,,,-99.99,,2013-05-18 17:14:00,
2013-05-18 13:20:00,66.2,44.6,30.63,SE,141,3.5,-999.9,46,-99.99,,,-99.99,,2013-05-18 17:20:00,
2013-05-18 13:26:00,66.2,46.4,30.63,SE,144,3.5,-999.9,49,-99.99,,,-99.99,,2013-05-18 17:26:00,
2013-05-18 13:32:00,66.2,48.2,30.63,SSE,158,0.0,-999.9,52,-99.99,,,-99.99,,2013-05-18 17:32:00,
2013-05-18 13:38:00,66.2,48.2,30.63,SSE,158,0.0,-999.9,52,-99.99,,,-99.99,,2013-05-18 17:38:00,
2013-05-18 13:44:00,64.4,50.0,30.63,SSE,155,1.2,-999.9,59,-99.99,,,-99.99,,2013-05-18 17:44:00,
2013-05-18 13:50:00,64.4,50.0,30.63,SSE,155,1.2,-999.9,59,-99.99,,,-99.99,,2013-05-18 17:50:00,
2013-05-18 13:56:00,64.4,48.2,30.63,SSE,160,3.5,-999.9,56,-99.99,,,-99.99,,2013-05-18 17:56:00,
2013-05-18 14:02:00,64.4,50.0,30.63,North,0,0.0,-999.9,59,-99.99,,,-99.99,,2013-05-18 18:02:00,
2013-05-18 14:08:00,64.4,50.0,30.63,North,0,0.0,-999.9,59,-99.99,,,-99.99,,2013-05-18 18:08:00,
2013-05-18 14:14:00,64.4,50.0,30.63,North,0,0.0,-999.9,59,-99.99,,,-99.99,,2013-05-18 18:14:00,
2013-05-18 14:20:00,64.4,50.0,30.63,North,0,0.0,-999.9,59,-99.99,,,-99.99,,2013-05-18 18:20:00,
2013-05-18 14:26:00,64.4,50.0,30.63,SE,145,2.3,-999.9,59,-99.99,,,-99.99,,2013-05-18 18:26:00,
2013-05-18 14:32:00,64.4,50.0,30.63,SSE,156,1.2,-999.9,59,-99.99,,,-99.99,,2013-05-18 18:32:00,
2013-05-18 14:38:00,64.4,50.0,30.63,SSE,156,1.2,-999.9,59,-99.99,,,-99.99,,2013-05-18 18:38:00,
2013-05-18 14:44:00,64.4,51.8,30.63,SSE,152,2.3,-999.9,64,-99.99,,,-99.99,,2013-05-18 18:44:00,
2013-05-18 14:50:00,64.4,51.8,30.63,SSE,152,2.3,-999.9,64,-99.99,,,-99.99,,2013-05-18 18:50:00,
2013-05-18 14:56:00,64.4,51.8,30.63,North,0,0.0,-999.9,64,-99.99,,,-99.99,,2013-05-18 18:56:00,
2013-05-18 15:12:00,62.6,51.8,30.63,SSE,162,1.2,-999.9,68,-99.99,,,-99.99,,2013-05-18 19:12:00,
2013-05-18 15:18:00,62.6,51.8,30.63,SSE,162,1.2,-999.9,68,-99.99,,,-99.99,,2013-05-18 19:18:00,
2013-05-18 15:24:00,62.6,51.8,30.63,North,0,0.0,-999.9,68,-99.99,,,-99.99,,2013-05-18 19:24:00,
2013-05-18 15:30:00,62.6,51.8,30.63,North,0,0.0,-999.9,68,-99.99,,,-99.99,,2013-05-18 19:30:00,
2013-05-18 15:36:00,62.6,51.8,30.63,SSE,160,2.3,-999.9,68,-99.99,,,-99.99,,2013-05-18 19:36:00,
2013-05-18 15:42:00,62.6,53.6,30.64,SSE,165,2.3,-999.9,72,-99.99,,,-99.99,,2013-05-18 19:42:00,
2013-05-18 15:48:00,62.6,53.6,30.64,SSE,165,2.3,-999.9,72,-99.99,,,-99.99,,2013-05-18 19:48:00,
2013-05-18 15:54:00,62.6,53.6,30.64,South,178,2.3,-999.9,72,-99.99,,,-99.99,,2013-05-18 19:54:00,
2013-05-18 16:00:00,62.6,53.6,30.64,South,178,2.3,-999.9,72,-99.99,,,-99.99,,2013-05-18 20:00:00,
2013-05-18 16:06:00,60.8,51.8,30.64,SE,135,4.6,-999.9,72,-99.99,,,-99.99,,2013-05-18 20:06:00,
2013-05-18 16:12:00,60.8,53.6,30.64,North,0,0.0,-999.9,77,-99.99,,,-99.99,,2013-05-18 20:12:00,
2013-05-18 16:18:00,60.8,53.6,30.64,North,0,0.0,-999.9,77,-99.99,,,-99.99,,2013-05-18 20:18:00,
2013-05-18 16:24:00,60.8,53.6,30.64,SSE,163,0.0,-999.9,77,-99.99,,,-99.99,,2013-05-18 20:24:00,
2013-05-18 16:30:00,60.8,53.6,30.64,SSE,163,0.0,-999.9,77,-99.99,,,-99.99,,2013-05-18 20:30:00,
2013-05-18 16:36:00,60.8,53.6,30.64,SSE,148,1.2,-999.9,77,-99.99,,,-99.99,,2013-05-18 20:36:00,
2013-05-18 16:42:00,60.8,53.6,30.64,SSE,163,2.3,-999.9,77,-99.99,,,-99.99,,2013-05-18 20:42:00,
2013-05-18 16:48:00,60.8,53.6,30.64,SSE,163,2.3,-999.9,77,-99.99,,,-99.99,,2013-05-18 20:48:00,
2013-05-18 16:54:00,60.8,53.6,30.64,SSE,166,2.3,-999.9,77,-99.99,,,-99.99,,2013-05-18 20:54:00,
2013-05-18 17:00:00,60.8,53.6,30.64,SSE,166,2.3,-999.9,77,-99.99,,,-99.99,,2013-05-18 21:00:00,
2013-05-18 17:06:00,60.8,53.6,30.64,SSE,156,5.8,-999.9,77,-99.99,,,-99.99,,2013-05-18 21:06:00,
2013-05-18 17:12:00,60.8,53.6,30.64,North,0,0.0,-999.9,77,-99.99,,,-99.99,,2013-05-18 21:12:00,
2013-05-18 17:18:00,60.8,53.6,30.64,North,0,0.0,-999.9,77,-99.99,,,-99.99,,2013-05-18 21:18:00,
2013-05-18 17:24:00,60.8,53.6,30.64,South,188,1.2,-999.9,77,-99.99,,,-99.99,,2013-05-18 21:24:00,
2013-05-18 17:30:00,60.8,53.6,30.64,South,188,1.2,-999.9,77,-99.99,,,-99.99,,2013-05-18 21:30:00,
2013-05-18 17:36:00,60.8,53.6,30.64,SSW,204,2.3,-999.9,77,-99.99,,,-99.99,,2013-05-18 21:36:00,
2013-05-18 17:42:00,60.8,55.4,30.63,SSE,149,1.2,-999.9,82,-99.99,,,-99.99,,2013-05-18 21:42:00,
2013-05-18 17:48:00,60.8,55.4,30.63,SSE,149,1.2,-999.9,82,-99.99,,,-99.99,,2013-05-18 21:48:00,
2013-05-18 17:54:00,60.8,55.4,30.63,SSE,154,1.2,-999.9,82,-99.99,,,-99.99,,2013-05-18 21:54:00,
2013-05-18 18:00:00,60.8,55.4,30.63,SSE,154,1.2,-999.9,82,-99.99,,,-99.99,,2013-05-18 22:00:00,
2013-05-18 18:06:00,60.8,55.4,30.63,SE,144,3.5,-999.9,82,-99.99,,,-99.99,,2013-05-18 22:06:00,
2013-05-18 18:12:00,60.8,55.4,30.63,South,183,0.0,-999.9,82,-99.99,,,-99.99,,2013-05-18 22:12:00,
2013-05-18 18:18:00,60.8,55.4,30.63,South,183,0.0,-999.9,82,-99.99,,,-99.99,,2013-05-18 22:18:00,
2013-05-18 18:24:00,60.8,55.4,30.63,North,0,0.0,-999.9,82,-99.99,,,-99.99,,2013-05-18 22:24:00,
2013-05-18 18:30:00,60.8,55.4,30.63,North,0,0.0,-999.9,82,-99.99,,,-99.99,,2013-05-18 22:30:00,
2013-05-18 18:36:00,60.8,53.6,30.63,SSE,151,3.5,-999.9,77,-99.99,,,-99.99,,2013-05-18 22:36:00,
2013-05-18 18:42:00,60.8,53.6,30.63,South,182,0.0,-999.9,77,-99.99,,,-99.99,,2013-05-18 22:42:00,
2013-05-18 18:48:00,60.8,53.6,30.63,South,182,0.0,-999.9,77,-99.99,,,-99.99,,2013-05-18 22:48:00,
2013-05-18 18:54:00,60.8,53.6,30.63,SE,129,3.5,-999.9,77,-99.99,,,-99.99,,2013-05-18 22:54:00,
2013-05-18 19:00:00,60.8,53.6,30.63,SE,129,3.5,-999.9,77,-99.99,,,-99.99,,2013-05-18 23:00:00,
2013-05-18 19:06:00,60.8,53.6,30.64,North,0,0.0,-999.9,77,-99.99,,,-99.99,,2013-05-18 23:06:00,
2013-05-18 19:12:00,60.8,53.6,30.63,North,0,0.0,-999.9,77,-99.99,,,-99.99,,2013-05-18 23:12:00,
2013-05-18 19:18:00,60.8,53.6,30.63,North,0,0.0,-999.9,77,-99.99,,,-99.99,,2013-05-18 23:18:00,
2013-05-18 19:24:00,60.8,53.6,30.64,SSE,150,3.5,-999.9,77,-99.99,,,-99.99,,2013-05-18 23:24:00,
2013-05-18 19:30:00,60.8,53.6,30.64,SSE,150,3.5,-999.9,77,-99.99,,,-99.99,,2013-05-18 23:30:00,
2013-05-18 19:36:00,60.8,53.6,30.64,South,188,1.2,-999.9,77,-99.99,,,-99.99,,2013-05-18 23:36:00,
2013-05-18 19:42:00,60.8,53.6,30.65,South,169,4.6,-999.9,77,-99.99,,,-99.99,,2013-05-18 23:42:00,
2013-05-18 19:48:00,60.8,53.6,30.65,South,169,4.6,-999.9,77,-99.99,,,-99.99,,2013-05-18 23:48:00,
2013-05-18 19:54:00,60.8,53.6,30.65,South,180,0.0,-999.9,77,-99.99,,,-99.99,,2013-05-18 23:54:00,
2013-05-18 20:00:00,60.8,53.6,30.65,South,180,0.0,-999.9,77,-99.99,,,-99.99,,2013-05-19 00:00:00,
2013-05-18 20:06:00,60.8,53.6,30.65,SSE,158,1.2,-999.9,77,-99.99,,,-99.99,,2013-05-19 00:06:00,
2013-05-18 21:12:00,59.0,53.6,30.65,SSE,165,4.6,-999.9,82,-99.99,,,-99.99,,2013-05-19 01:12:00,
2013-05-18 21:18:00,59.0,53.6,30.65,SSE,165,4.6,-999.9,82,-99.99,,,-99.99,,2013-05-19 01:18:00,
2013-05-18 21:24:00,59.0,53.6,30.65,SSE,164,5.8,-999.9,82,-99.99,,,-99.99,,2013-05-19 01:24:00,
2013-05-18 21:30:00,59.0,53.6,30.65,SSE,164,5.8,-999.9,82,-99.99,,,-99.99,,2013-05-19 01:30:00,
2013-05-18 21:36:00,59.0,53.6,30.66,SSE,163,1.2,-999.9,82,-99.99,,,-99.99,,2013-05-19 01:36:00,
2013-05-18 21:42:00,59.0,53.6,30.65,North,0,0.0,-999.9,82,-99.99,,,-99.99,,2013-05-19 01:42:00,
2013-05-18 21:48:00,59.0,53.6,30.65,North,0,0.0,-999.9,82,-99.99,,,-99.99,,2013-05-19 01:48:00,
2013-05-18 21:54:00,59.0,53.6,30.65,SSE,150,1.2,-999.9,82,-99.99,,,-99.99,,2013-05-19 01:54:00,
2013-05-18 22:00:00,59.0,53.6,30.65,SSE,150,1.2,-999.9,82,-99.99,,,-99.99,,2013-05-19 02:00:00,
2013-05-18 22:06:00,59.0,53.6,30.66,North,0,0.0,-999.9,82,-99.99,,,-99.99,,2013-05-19 02:06:00,
2013-05-18 22:12:00,59.0,53.6,30.66,North,0,0.0,-999.9,82,-99.99,,,-99.99,,2013-05-19 02:12:00,
2013-05-18 22:18:00,59.0,53.6,30.66,North,0,0.0,-999.9,82,-99.99,,,-99.99,,2013-05-19 02:18:00,
2013-05-18 22:24:00,59.0,53.6,30.66,North,0,0.0,-999.9,82,-99.99,,,-99.99,,2013-05-19 02:24:00,
2013-05-18 22:30:00,59.0,53.6,30.66,North,0,0.0,-999.9,82,-99.99,,,-99.99,,2013-05-19 02:30:00,
2013-05-18 22:36:00,57.2,53.6,30.66,North,0,0.0,-999.9,88,-99.99,,,-99.99,,2013-05-19 02:36:00,
2013-05-18 22:42:00,57.2,53.6,30.66,North,0,0.0,-999.9,88,-99.99,,,-99.99,,2013-05-19 02:42:00,
2013-05-18 22:48:00,57.2,53.6,30.66,North,0,0.0,-999.9,88,-99.99,,,-99.99,,2013-05-19 02:48:00,
2013-05-18 22:54:00,57.2,53.6,30.65,North,0,0.0,-999.9,88,-99.99,,,-99.99,,2013-05-19 02:54:00,
2013-05-18 23:00:00,57.2,53.6,30.65,North,0,0.0,-999.9,88,-99.99,,,-99.99,,2013-05-19 03:00:00,
2013-05-18 23:06:00,57.2,53.6,30.65,North,0,0.0,-999.9,88,-99.99,,,-99.99,,2013-05-19 03:06:00,
2013-05-18 23:12:00,57.2,53.6,30.65,North,0,0.0,-999.9,88,-99.99,,,-99.99,,2013-05-19 03:12:00,
2013-05-18 23:18:00,57.2,53.6,30.65,North,0,0.0,-999.9,88,-99.99,,,-99.99,,2013-05-19 03:18:00,
2013-05-18 23:24:00,57.2,53.6,30.65,North,0,0.0,-999.9,88,-99.99,,,-99.99,,2013-05-19 03:24:00,
2013-05-18 23:30:00,57.2,53.6,30.65,North,0,0.0,-999.9,88,-99.99,,,-99.99,,2013-05-19 03:30:00,
2013-05-18 23:36:00,57.2,53.6,30.65,North,0,0.0,-999.9,88,-99.99,,,-99.99,,2013-05-19 03:36:00,
2013-05-18 23:42:00,57.2,53.6,30.65,North,0,0.0,-999.9,88,-99.99,,,-99.99,,2013-05-19 03:42:00,
2013-05-18 23:48:00,57.2,53.6,30.65,North,0,0.0,-999.9,88,-99.99,,,-99.99,,2013-05-19 03:48:00,
2013-05-18 23:54:00,57.2,53.6,30.65,North,0,0.0,-999.9,88,-99.99,,,-99.99,,2013-05-19 03:54:00,